| time (UTC) | temp C | wind direction | speed KPH | gust KPH | rain 1hr cm | rain 24hr cm | rain mn cm | humidity % | barometer mb |
| 20260902150016 | 12 | 68 | 1.6 | 6.4 | 0.00 | 0.00 | 0.00 | 78 | 1017.5 |
| 20260902144516 | 12 | 68 | 1.6 | 4.8 | 0.00 | 0.00 | 0.00 | 79 | 1017.3 |
| 20260902143016 | 11 | 68 | 1.6 | 6.4 | 0.00 | 0.00 | 0.00 | 80 | 1017.3 |
| 20260902141536 | 11 | 68 | 1.6 | 6.4 | 0.00 | 0.00 | 0.00 | 81 | 1017.2 |
| 20260902140036 | 11 | 0.0 | 6.4 | 0.00 | 0.00 | 0.00 | 83 | 1017.1 | |
| 20260902134536 | 11 | 0.0 | 4.8 | 0.00 | 0.00 | 0.00 | 84 | 1017.0 | |
| 20260902133016 | 11 | 0.0 | 3.2 | 0.00 | 0.00 | 0.00 | 84 | 1016.7 | |
| 20260902131516 | 11 | 0.0 | 4.8 | 0.00 | 0.00 | 0.00 | 84 | 1016.6 | |
| 20260902130056 | 11 | 0.0 | 4.8 | 0.00 | 0.00 | 0.00 | 84 | 1016.6 | |
| 20260902124516 | 11 | 68 | 1.6 | 8.0 | 0.00 | 0.00 | 0.00 | 84 | 1016.7 |
| 20260902123016 | 11 | 90 | 3.2 | 11.3 | 0.00 | 0.00 | 0.00 | 85 | 1016.7 |
| 20260902121516 | 11 | 68 | 1.6 | 8.0 | 0.00 | 0.00 | 0.00 | 85 | 1016.8 |
| 20260902120016 | 11 | 68 | 1.6 | 4.8 | 0.00 | 0.00 | 0.00 | 86 | 1016.8 |
| 20260902114516 | 11 | 90 | 1.6 | 8.0 | 0.00 | 0.00 | 0.00 | 86 | 1016.8 |
| 20260902113016 | 11 | 68 | 1.6 | 8.0 | 0.00 | 0.00 | 0.00 | 86 | 1016.8 |
| 20260902111516 | 11 | 90 | 1.6 | 4.8 | 0.00 | 0.00 | 0.00 | 86 | 1016.8 |
| 20260902110036 | 11 | 0.0 | 6.4 | 0.00 | 0.00 | 0.00 | 85 | 1016.9 | |
| 20260902104516 | 11 | 0.0 | 0.0 | 0.00 | 0.00 | 0.00 | 85 | 1016.9 | |
| 20260902103016 | 11 | 0.0 | 0.0 | 0.00 | 0.00 | 0.00 | 85 | 1017.1 | |
| 20260902101516 | 11 | 0.0 | 3.2 | 0.00 | 0.00 | 0.00 | 84 | 1017.1 | |
| 20260902100016 | 11 | 113 | 1.6 | 4.8 | 0.00 | 0.00 | 0.00 | 84 | 1017.1 |
| 20260902094516 | 11 | 113 | 1.6 | 6.4 | 0.00 | 0.00 | 0.00 | 83 | 1017.1 |
| 20260902093016 | 11 | 113 | 1.6 | 6.4 | 0.00 | 0.00 | 0.00 | 83 | 1017.1 |
| 20260902091516 | 12 | 113 | 3.2 | 6.4 | 0.00 | 0.00 | 0.00 | 82 | 1017.2 |
| 20260902090015 | 12 | 158 | 1.6 | 14.5 | 0.00 | 0.00 | 0.00 | 82 | 1017.2 |
| 20260902084516 | 12 | 113 | 1.6 | 4.8 | 0.00 | 0.00 | 0.00 | 81 | 1017.0 |
| 20260902083016 | 12 | 0.0 | 4.8 | 0.00 | 0.00 | 0.00 | 81 | 1016.8 | |
| 20260902081515 | 12 | 135 | 1.6 | 4.8 | 0.00 | 0.00 | 0.00 | 80 | 1016.7 |
| 20260902080016 | 12 | 113 | 1.6 | 4.8 | 0.00 | 0.00 | 0.00 | 80 | 1016.6 |
| 20260902074515 | 12 | 113 | 3.2 | 8.0 | 0.00 | 0.00 | 0.00 | 80 | 1016.4 |
| 20260902073035 | 12 | 113 | 3.2 | 8.0 | 0.00 | 0.00 | 0.00 | 79 | 1016.6 |
| 20260902071516 | 12 | 113 | 4.8 | 8.0 | 0.00 | 0.00 | 0.00 | 78 | 1016.4 |
| 20260902070016 | 12 | 113 | 3.2 | 8.0 | 0.00 | 0.00 | 0.00 | 78 | 1016.6 |
| 20260902064557 | 12 | 113 | 3.2 | 9.7 | 0.00 | 0.00 | 0.00 | 77 | 1016.7 |
| 20260902063017 | 12 | 113 | 3.2 | 9.7 | 0.00 | 0.00 | 0.00 | 77 | 1016.7 |
| 20260902061517 | 13 | 113 | 1.6 | 8.0 | 0.00 | 0.00 | 0.00 | 76 | 1016.7 |
| 20260902060017 | 13 | 158 | 1.6 | 8.0 | 0.00 | 0.00 | 0.00 | 75 | 1016.7 |
| 20260902054517 | 13 | 113 | 1.6 | 9.7 | 0.00 | 0.00 | 0.00 | 74 | 1016.4 |
| 20260902053017 | 13 | 113 | 1.6 | 6.4 | 0.00 | 0.00 | 0.00 | 72 | 1016.5 |
| 20260902051517 | 13 | 113 | 1.6 | 4.8 | 0.00 | 0.00 | 0.00 | 70 | 1016.5 |
| 20260902050017 | 14 | 0.0 | 6.4 | 0.00 | 0.00 | 0.00 | 70 | 1016.6 | |
| 20260902044517 | 14 | 0.0 | 3.2 | 0.00 | 0.00 | 0.00 | 68 | 1016.6 | |
| 20260902043017 | 15 | 0.0 | 3.2 | 0.00 | 0.00 | 0.00 | 67 | 1016.5 | |
| 20260902041516 | 15 | 0.0 | 0.0 | 0.00 | 0.00 | 0.00 | 66 | 1016.1 | |
| 20260902040016 | 15 | 0.0 | 0.0 | 0.00 | 0.00 | 0.00 | 65 | 1015.9 | |
| 20260902034517 | 15 | 0.0 | 0.0 | 0.00 | 0.00 | 0.00 | 64 | 1015.7 | |
| 20260902033017 | 16 | 0.0 | 0.0 | 0.00 | 0.00 | 0.00 | 62 | 1015.5 | |
| 20260902031516 | 16 | 0.0 | 0.0 | 0.00 | 0.00 | 0.00 | 60 | 1015.0 | |
| 20260902030016 | 16 | 0.0 | 0.0 | 0.00 | 0.00 | 0.00 | 58 | 1014.9 | |
| 20260902024517 | 17 | 0.0 | 0.0 | 0.00 | 0.00 | 0.00 | 56 | 1014.5 | |
| 20260902023017 | 17 | 0.0 | 0.0 | 0.00 | 0.00 | 0.00 | 54 | 1014.4 | |
| 20260902021516 | 17 | 0.0 | 3.2 | 0.00 | 0.00 | 0.00 | 52 | 1014.3 | |
| 20260902020016 | 17 | 0.0 | 1.6 | 0.00 | 0.00 | 0.00 | 52 | 1014.2 | |
| 20260902014517 | 18 | 0.0 | 1.6 | 0.00 | 0.00 | 0.00 | 52 | 1014.3 | |
| 20260902013017 | 18 | 0.0 | 4.8 | 0.00 | 0.00 | 0.00 | 52 | 1014.4 | |
| 20260902011516 | 18 | 0.0 | 4.8 | 0.00 | 0.00 | 0.00 | 51 | 1014.4 | |
| 20260902010037 | 18 | 0.0 | 4.8 | 0.00 | 0.00 | 0.00 | 52 | 1014.4 | |
| 20260902004516 | 19 | 158 | 1.6 | 6.4 | 0.00 | 0.00 | 0.00 | 49 | 1014.6 |
| 20260902003017 | 19 | 113 | 1.6 | 11.3 | 0.00 | 0.00 | 0.00 | 47 | 1014.5 |
| 20260902001536 | 19 | 113 | 3.2 | 11.3 | 0.00 | 0.00 | 0.00 | 49 | 1014.6 |
| 20260902000037 | 20 | 270 | 1.6 | 8.0 | 0.00 | 0.00 | 0.00 | 48 | 1014.5 |
| 20260901234516 | 20 | 135 | 1.6 | 8.0 | 0.00 | 0.00 | 0.00 | 49 | 1014.5 |
| 20260901233016 | 20 | 203 | 1.6 | 9.7 | 0.00 | 0.00 | 0.00 | 50 | 1014.6 |
| 20260901231516 | 20 | 203 | 1.6 | 6.4 | 0.00 | 0.00 | 0.00 | 50 | 1014.8 |
| 20260901230017 | 20 | 113 | 1.6 | 9.7 | 0.00 | 0.00 | 0.00 | 50 | 1014.9 |
| 20260901224516 | 20 | 225 | 1.6 | 8.0 | 0.00 | 0.00 | 0.00 | 50 | 1015.0 |
| 20260901223017 | 20 | 113 | 3.2 | 14.5 | 0.00 | 0.00 | 0.00 | 51 | 1015.1 |
| 20260901221516 | 20 | 113 | 1.6 | 8.0 | 0.00 | 0.00 | 0.00 | 52 | 1015.2 |
| 20260901220016 | 20 | 180 | 1.6 | 11.3 | 0.00 | 0.00 | 0.00 | 52 | 1015.4 |
| 20260901214516 | 19 | 113 | 3.2 | 12.9 | 0.00 | 0.00 | 0.00 | 53 | 1015.4 |
| 20260901213016 | 20 | 135 | 1.6 | 11.3 | 0.00 | 0.00 | 0.00 | 54 | 1015.5 |
| 20260901211516 | 20 | 135 | 1.6 | 9.7 | 0.00 | 0.00 | 0.00 | 55 | 1015.7 |
| 20260901210016 | 20 | 180 | 1.6 | 9.7 | 0.00 | 0.00 | 0.00 | 54 | 1015.7 |
| 20260901204516 | 18 | 270 | 1.6 | 11.3 | 0.00 | 0.00 | 0.00 | 58 | 1015.6 |
| 20260901203016 | 18 | 135 | 3.2 | 9.7 | 0.00 | 0.00 | 0.00 | 58 | 1015.7 |
| 20260901201516 | 18 | 113 | 3.2 | 16.1 | 0.00 | 0.00 | 0.00 | 58 | 1015.8 |
| 20260901200016 | 18 | 135 | 3.2 | 9.7 | 0.00 | 0.00 | 0.00 | 59 | 1015.7 |
| 20260901194516 | 18 | 113 | 3.2 | 11.3 | 0.00 | 0.00 | 0.00 | 58 | 1015.7 |
| 20260901193016 | 18 | 135 | 3.2 | 11.3 | 0.00 | 0.00 | 0.00 | 59 | 1015.7 |
| 20260901191556 | 18 | 113 | 3.2 | 11.3 | 0.00 | 0.00 | 0.00 | 60 | 1016.1 |
| 20260901190016 | 18 | 113 | 3.2 | 11.3 | 0.00 | 0.00 | 0.00 | 59 | 1016.0 |
| 20260901184516 | 17 | 180 | 1.6 | 9.7 | 0.00 | 0.00 | 0.00 | 62 | 1015.9 |
| 20260901183016 | 17 | 90 | 3.2 | 9.7 | 0.00 | 0.00 | 0.00 | 64 | 1015.9 |
| 20260901181516 | 17 | 113 | 3.2 | 8.0 | 0.00 | 0.00 | 0.00 | 61 | 1015.7 |
| 20260901180016 | 17 | 113 | 4.8 | 9.7 | 0.00 | 0.00 | 0.00 | 64 | 1015.6 |
| 20260901174516 | 16 | 113 | 4.8 | 11.3 | 0.00 | 0.00 | 0.00 | 69 | 1015.5 |
| 20260901173016 | 15 | 113 | 3.2 | 9.7 | 0.00 | 0.00 | 0.00 | 69 | 1015.5 |
| 20260901171516 | 15 | 135 | 3.2 | 11.3 | 0.00 | 0.00 | 0.00 | 70 | 1015.4 |
| 20260901170016 | 15 | 113 | 4.8 | 16.1 | 0.00 | 0.00 | 0.00 | 71 | 1015.2 |
| 20260901164516 | 16 | 113 | 4.8 | 9.7 | 0.00 | 0.00 | 0.00 | 68 | 1015.2 |
| 20260901163016 | 15 | 113 | 4.8 | 9.7 | 0.00 | 0.00 | 0.00 | 71 | 1014.8 |
| 20260901161516 | 14 | 113 | 3.2 | 11.3 | 0.00 | 0.00 | 0.00 | 75 | 1014.7 |
| 20260901160036 | 14 | 113 | 4.8 | 9.7 | 0.00 | 0.00 | 0.00 | 76 | 1014.5 |
| 20260901154536 | 13 | 113 | 4.8 | 9.7 | 0.00 | 0.00 | 0.00 | 79 | 1014.4 |
| 20260901153036 | 13 | 113 | 3.2 | 14.5 | 0.00 | 0.00 | 0.00 | 82 | 1014.1 |
| 20260901151516 | 12 | 113 | 3.2 | 6.4 | 0.00 | 0.00 | 0.00 | 84 | 1014.1 |